Погода в Такне

Перу     18°00′27″S   70°14′21″W
темп.,
°C
ветер,
м/с
пор.,
м/с
влажн.,
%
обл.,
%
осадки,
мм/ч
давл.,
гПа
погр.,
м
24 января, пн
пн2401:00+17ююз1187100 0.0 1013106
04:00+16ююз119396 0.0 1013138
07:00+18зюз118659 0.0 1013291
10:00+22юз3263100 0.0 1013811
13:00+25юз635442 0.0 10101009
16:00+22юз536448 0.0 1011720
19:00+18юз2186100 0.0 1013284
22:00+18зюз2187100 0.0 1014256
25 января, вт
вт2501:00+17юз2190100 0.1 1012216
04:00+17юз2294100 1.1 1013262
07:00+17юз1188100 1.1 1014273
10:00+21юз326799 0.0 1013721
13:00+24юз635617 0.0 1011962
16:00+21юз4268100 0.1 1011614
19:00+17юз218682 0.1 1013316
22:00+17юз2289100 0.0 1014287
26 января, ср
ср2601:00+17юз218866 0.0 1013240
04:00+17юз219296 0.0 1013239
07:00+17юз219091 0.0 1015278
10:00+20юз317381 0.0 1015704
13:00+23юз536055 0.0 1013939
16:00+20юз427392 0.0 1014690
19:00+18юз3286100 0.1 1015370
22:00+17юз2190100 0.2 1017321
27 января, чт
чт2701:00+17ююз2191100 0.4 1015267
04:00+17юз1191100 0.0 1015244
07:00+17ююз2189100 0.0 1015288
10:00+20юз317392 0.0 1015752
13:00+23юз535943 0.0 10131007
16:00+21юз527172 0.0 1013679
19:00+17юз3289100 0.1 1015371
22:00+17юз2190100 0.0 1016305
28 января, пт
пт2801:00+17ююз2189100 0.1 1014229
04:00+17ююз2191100 0.3 1013204
07:00+17ююз2190100 0.3 1015276
10:00+20юз317597 0.0 1014669
13:00+22юз536787 0.0 1013792
16:00+20юз4274100 0.0 1012641
19:00+17юз329199 0.0 1014322
22:00+17юз2191100 0.0 1015283